Location: Holyhead Bay
(53.3667°N, 4.6667°W)
Time: 19:53:38
(UTC+00:00)

Cosmos 1633 Rocket - Pass Details

Date: 24 November 2020
Orbit: 606 x 624 km, 82.5° (Epoch: 16 January)

Event Time Altitude Azimuth Distance (km) Brightness Sun altitude
Rises 17:43:55 0° 353° (N) 2,911 6.4 -13.4°
Reaches altitude 10° 17:46:16 10° 0° (N) 1,997 5.5 -13.7°
Maximum altitude 17:50:28 42° 72° (ENE) 891 3.4 -14.3°
Drops below altitude 10° 17:54:37 10° 143° (SE) 1,972 5.4 -14.9°
Sets 17:56:56 0° 151° (SSE) 2,869 6.3 -15.3°
